星链-31757 (STARLINK-31757 )

导读

STARLINK-31757是美国太空探索技术公司SpaceX星链星座中的一颗卫星,于2024年4月7日发射入轨,属于SpaceX批量部署的星链卫星之一,服务于星链全球卫星互联网项目,为全球多地提供高速互联网接入服务,尤其覆盖偏远地区等网络基础设施薄弱区域。

Basic Information
目录编号:
59427
目录名称:
STARLINK-31757
国际标识:
2024-065G
轨道中心:
EARTH
卫星名称:
星链-31757
卫星全名:
星链-31757 (STARLINK-31757 )
卫星状态:
在轨 (已飞行802 天)
发射日期:
2024-04-07 UTC
国别 :
美国 (US)
星等 :
--
Orbit Information
数据来源 国际轨道数据 AOE轨道数据
星历时间 2026-06-17T16:07:14+0800
20小时前
查看轨道信息
2026-06-18T00:00:00+0800
13小时前
查看轨道信息
半长轴 6840.887km 6840.878km
偏心率 0.0001742 0.0002566
轨道倾角 53.161° 53.163°
近地点辐角 98.850° 164.847°
升交点赤经 178.292° 176.741°
平近点角 261.270° 209.847°
近地点 461.558km 460.985km
远地点 463.942km 464.497km
周期 93.849分钟 93.849分钟
每日圈数 15.343844 15.343873
Detailed Information
固有亮度:
5
最大亮度:
1.5
卫星平台:
Starlink v2.0 mini
覆盖范围:
全球
运营商:
太空探索技术公司
运营商所在国:
美国
制造商(研发单位):
太空探索技术公司
制造商所在国:
美国
使用方式:
暂无
Satellite Introduction
星链(Starlink)计划是由太空探索技术公司(SpaceX)提出的一个巨型低轨卫星互联网星座项目,计划在2019年至2024年间在太空搭建由约1.2万颗卫星组成的“星链”网络,其中1584颗将部署在地球上空550千米处的近地轨道,并从2020年开始工作。该卫星仍在工作。
2D Orbit Map
3D Orbit Map
Orbit Altitude Analysis Chart
Orbit Inclination Analysis Chart
Orbit Comprehensive Analysis Chart
View Comprehensive Chart